Location: Bovenkerk
(52.2915°N, 4.8336°E)
Time: 08:19:05
(UTC+00:00)

N. Korean satellite - Visible Passes

Search period start: 06 March 2021 00:00
Search period end: 16 March 2021 00:00
Orbit: 451 x 502 km, 97.2° (Epoch: 05 March)

Date Brightness Start Highest point End Pass type
(mag) Time Alt. Az. Time Alt. Az. Time Alt. Az.
06 Mar 9.8 04:04:54 10° ENE 04:06:46 14° E 04:08:39 10° ESE visible
06 Mar 6.6 05:36:56 10° N 05:40:26 59° WNW 05:43:58 10° SSW visible
07 Mar 6.9 05:10:07 10° NNE 05:13:40 69° ESE 05:17:15 10° S visible
08 Mar 8.4 04:43:31 10° NNE 04:46:49 34° E 04:50:07 10° SSE visible
09 Mar 9.5 04:17:16 10° NE 04:19:51 19° E 04:22:27 10° SE visible
10 Mar 6.5 05:23:01 10° NNE 05:26:37 85° W 05:30:14 10° SSW visible
11 Mar 7.7 04:56:17 10° NNE 04:59:47 48° E 05:03:18 10° S visible
12 Mar 9.1 04:29:49 10° NE 04:32:52 25° E 04:35:55 10° SSE visible
13 Mar 9.8 04:03:53 10° ENE 04:05:49 14° E 04:07:46 10° ESE visible
14 Mar 7.0 05:09:04 10° NNE 05:12:42 68° ESE 05:16:20 10° S visible
15 Mar 8.5 04:42:26 10° NNE 04:45:47 34° E 04:49:09 10° SSE visible
